West Chatham, MA

7:46 PM EST on December 10, 2016 (GMT -0500)
Chatham Municipal

Weather History for KCQX - June, 2014

Change the Weather History Date:

Monday, June 30, 2014

  Actual Average Record
Temperature  
Mean Temperature 70 °F -  
Max Temperature 77 °F 74 °F 90 °F (2012)
Min Temperature 64 °F 60 °F 53 °F (1979)
Cooling Degree Days 4    
Growing Degree Days 20 (Base 50)    
Moisture  
Dew Point 65 °F    
Average Humidity 83    
Maximum Humidity 93    
Minimum Humidity 71    
Precipitation  
Precipitation 0.00 in - - ()
Sea Level Pressure  
Sea Level Pressure 30.06 in    
Wind  
Wind Speed 9 mph (SW)    
Max Wind Speed 16 mph    
Max Gust Speed 26 mph    
Visibility 10 miles    
Events      
Averages and records for this station are not official NWS values.
T = Trace of Precipitation, MM = Missing Value Source: NWS Daily Summary

Daily Weather History Graph

Daily Weather History Graph

Search for Another Location

Airport or City:

Trip Planner

Search our weather history database for the weather conditions in past years. The results will help you decide how hot, cold, wet, or windy it might be!

Date:

Astronomy

Jun. 30, 2014 Rise Set
Actual Time 5:08 AM EDT 8:18 PM EDT
Civil Twilight 4:34 AM EDT 8:52 PM EDT
Nautical Twilight 3:51 AM EDT 9:36 PM EDT
Astronomical Twilight 2:58 AM EDT 10:28 PM EDT
Moon 8:21 AM EDT (6/30) 10:06 PM EDT (6/30)
Length of Visible Light 16h 17m
Length of Day
15h 09m
Waxing Crescent, 10% of the Moon is Illuminated
Jun 30
Waxing Crescent
Jul 5
First Quarter
Jul 12
Full
Jul 18
Last Quarter
Jul 26
New

Hourly Weather History & Observations

Time (EDT) Temp. Dew Point Humidity Pressure Visibility Wind Dir Wind Speed Gust Speed Precip Events Conditions
12:52 AM 64.9 °F 62.1 °F 90% 30.15 in 10.0 mi SW 8.1 mph - N/A   Clear
1:52 AM 66.0 °F 62.1 °F 87% 30.14 in 10.0 mi SW 6.9 mph - N/A   Clear
2:52 AM 66.0 °F 63.0 °F 90% 30.12 in 10.0 mi SW 6.9 mph - N/A   Clear
3:52 AM 66.0 °F 63.0 °F 90% 30.11 in 10.0 mi SW 6.9 mph - N/A   Clear
4:52 AM 66.0 °F 63.0 °F 90% 30.10 in 10.0 mi SW 6.9 mph - N/A   Clear
5:52 AM 66.9 °F 63.0 °F 87% 30.09 in 10.0 mi SW 8.1 mph - N/A   Clear
6:52 AM 69.1 °F 64.0 °F 84% 30.09 in 10.0 mi SW 8.1 mph - N/A   Clear
7:52 AM 71.1 °F 64.0 °F 78% 30.11 in 10.0 mi SW 9.2 mph 17.3 mph N/A   Clear
8:52 AM 72.0 °F 64.9 °F 78% 30.11 in 10.0 mi SW 9.2 mph - N/A   Mostly Cloudy
10:52 AM 75.0 °F 66.0 °F 73% 30.09 in 10.0 mi SSW 11.5 mph 19.6 mph N/A   Clear
12:52 PM 75.9 °F 66.0 °F 71% 30.06 in 10.0 mi SW 16.1 mph 23.0 mph N/A   Clear
1:52 PM 75.9 °F 66.0 °F 71% 30.05 in 10.0 mi SW 16.1 mph 26.5 mph N/A   Clear
2:52 PM 75.9 °F 66.0 °F 71% 30.04 in 10.0 mi SW 9.2 mph 21.9 mph N/A   Clear
3:52 PM 75.0 °F 66.0 °F 73% 30.03 in 10.0 mi SW 15.0 mph 24.2 mph N/A   Clear
4:52 PM 73.0 °F 66.0 °F 79% 30.02 in 10.0 mi SW 12.7 mph 21.9 mph N/A   Clear
5:52 PM 72.0 °F 66.0 °F 81% 30.00 in 10.0 mi SW 12.7 mph 19.6 mph N/A   Clear
6:52 PM 71.1 °F 66.0 °F 84% 30.00 in 10.0 mi SW 9.2 mph 19.6 mph N/A   Clear
7:52 PM 70.0 °F 64.9 °F 84% 30.00 in 10.0 mi WSW 9.2 mph 17.3 mph N/A   Clear
8:52 PM 69.1 °F 64.9 °F 87% 29.99 in 10.0 mi SW 10.4 mph 17.3 mph N/A   Clear
9:52 PM 68.0 °F 64.9 °F 90% 29.99 in 10.0 mi SW 8.1 mph - N/A   Clear
10:52 PM 68.0 °F 66.0 °F 93% 30.00 in 10.0 mi SW 5.8 mph - N/A   Clear
11:52 PM 68.0 °F 66.0 °F 93% 29.99 in 10.0 mi SW 6.9 mph - N/A   Clear